[[{"header":{"parameterUnit":"m.s-1","parameterCategory":1,"la1":30.2991,"la2":30.254,"lo1":-89.0895,"lo2":-89.0444,"dx":0.0017,"dy":0.0017,"nx":28,"ny":28,"refTime":"2022-11-15T15:00:00:Z","depth":0,"parameterNumber":2,"parameterNumberName":"U-component_of_WINDS"},"data":[0,0,0,0,0,0,0,0,0,0,0,0,0,0,0,0,0,0,0,0,0,0,0,0,0,0,0,0,0,0,0,0,0,0,0,0,0,0,0,0,0,0,0,0,0,0,0,0,0,0,0,0,0,0,0,0,0,0,0.4244,0.4244,0,0.4225,0.4225,0.4225,0.4221,0.4221,0.4222,0.4222,0.4202,0.4201,0.42,0,0,0,0,0,0,0,0,0,0,0,0,0,0.4279,0.4278,0.4244,0.4244,0.4244,0.4225,0.4225,0.4225,0.4221,0.4221,0.4222,0.4222,0.4202,0.4201,0.42,0,0,0,0,0,0,0,0,0,0,0,0,0,0.4262,0.4278,0.4244,0.424,0.4239,0.4225,0.4225,0.4225,0.4221,0.4221,0.4222,0.4222,0.4202,0.4201,0.42,0.4189,0,0,0.4197,0.4197,0,0,0,0,0,0,0,0,0.4263,0.4261,0.4241,0.424,0.424,0.4226,0.423,0.4213,0.4221,0.4228,0.4222,0.4222,0.4209,0.4208,0.4204,0.4188,0.4187,0.4197,0.4196,0.4196,0.4196,0,0,0,0,0,0,0,0.4264,0.4262,0.4237,0.4241,0.424,0.4239,0.4237,0.4227,0.4218,0.4228,0.4227,0.4225,0.4209,0.4205,0.4203,0.4187,0.4197,0.4196,0.4195,0.4195,0.4163,0.4163,0,0,0,0,0,0,0.4266,0.4263,0.4237,0.4236,0.4252,0.4238,0.4236,0.423,0.4218,0.4216,0.4225,0.4225,0.4206,0.4204,0.4203,0.419,0.4196,0.4195,0.4194,0.4163,0.4163,0.4163,0,0,0,0,0,0,0.4267,0.4264,0.4238,0.4249,0.4246,0.4238,0.4231,0.423,0.4225,0.4216,0.4214,0.4222,0.4206,0.4204,0.4193,0.4189,0.4194,0.4193,0.4164,0.4163,0.4163,0.4163,0,0,0,0,0,0,0.4268,0.4264,0.426,0.4249,0.4245,0.4228,0.4231,0.4229,0.4223,0.4223,0.4213,0.4211,0.4206,0.4194,0.4192,0.4188,0.4193,0.4164,0.4163,0.4163,0.4163,0.4163,0.4162,0,0,0,0,0,0.4269,0.426,0.4259,0.4256,0.4239,0.4228,0.4226,0.4221,0.4223,0.4219,0.4213,0.4211,0.419,0.4193,0.419,0.4186,0.4164,0.4164,0.4163,0.4164,0.4163,0.4162,0,0,0,0,0,0,0.4269,0.4258,0.4258,0.4245,0.4238,0.4228,0.4222,0.422,0.4212,0.4212,0.4207,0.4204,0.4194,0.4189,0.4193,0.4175,0.4177,0.4176,0.4179,0.4178,0.4177,0.4179,0.4192,0,0,0,0,0,0.4268,0.4259,0.4251,0.424,0.4237,0.423,0.4225,0.4222,0.4214,0.4211,0.4204,0.4197,0.4189,0.4183,0.4175,0.4163,0.4161,0.4159,0.4158,0.4158,0.4157,0.4151,0.415,0.4161,0.4161,0.4161,0,0,0.4264,0.4258,0.4252,0.424,0.4234,0.4226,0.4227,0.4218,0.4212,0.4209,0.4199,0.4194,0.4185,0.4174,0.4169,0.417,0.4154,0.4157,0.4157,0.4156,0.4151,0.415,0.4149,0.4161,0.4161,0.4161,0,0,0.4254,0.4248,0.4239,0.4234,0.4225,0.4221,0.4219,0.421,0.4207,0.4196,0.4194,0.4188,0.4173,0.4167,0.4163,0.4153,0.4152,0.4151,0.4147,0.4142,0.4142,0.4141,0.4138,0.4137,0.415,0.415,0.415,0,0.4251,0.4239,0.4235,0.4226,0.4221,0.422,0.4211,0.4206,0.4195,0.4192,0.4193,0.4176,0.417,0.4158,0.4156,0.4152,0.415,0.4151,0.4142,0.4141,0.414,0.4138,0.4137,0.415,0.415,0.415,0.415,0,0.4236,0.4227,0.4221,0.4212,0.4206,0.4198,0.4193,0.4188,0.4186,0.4182,0.4172,0.4166,0.4157,0.4154,0.4151,0.4142,0.4143,0.4143,0.4145,0.4139,0.4137,0.4136,0.415,0.415,0.415,0.415,0,0,0.4223,0.4213,0.4211,0.4207,0.4199,0.4192,0.4185,0.4176,0.4172,0.4166,0.4159,0.4148,0.4149,0.4144,0.4141,0.4137,0.4131,0.4138,0.4137,0.4137,0.4121,0.4121,0.4119,0.413,0.413,0.413,0.4122,0,0.4212,0.4198,0.4195,0.4183,0.4176,0.4175,0.4169,0.4163,0.416,0.4154,0.415,0.4142,0.4144,0.4141,0.4136,0.4132,0.4127,0.4133,0.4124,0.4124,0.4126,0.4118,0.4117,0.411,0.4121,0.412,0.412,0,0.4197,0.4191,0.4178,0.4172,0.4169,0.4163,0.4156,0.415,0.4144,0.4142,0.4138,0.4136,0.4129,0.4132,0.4122,0.4126,0.4122,0.412,0.412,0.4118,0.4121,0.4116,0.4107,0.4106,0.4119,0.4119,0.4119,0,0.4189,0.4178,0.4169,0.4166,0.4159,0.4155,0.4152,0.4146,0.4142,0.4136,0.4134,0.4127,0.4123,0.4119,0.4116,0.4118,0.4106,0.4109,0.4105,0.4105,0.4102,0.4102,0.4092,0.41,0.41,0.41,0.41,0,0.4177,0.417,0.4166,0.4161,0.4153,0.415,0.4143,0.4139,0.4135,0.413,0.4129,0.4123,0.412,0.4115,0.4112,0.4105,0.4103,0.4102,0.4101,0.4102,0.4102,0.4099,0.41,0.41,0.41,0.41,0.41,0,0.4167,0.4164,0.4155,0.415,0.4148,0.4143,0.4138,0.4133,0.4131,0.4124,0.4122,0.4118,0.4112,0.4109,0.4101,0.41,0.4092,0.4092,0.4094,0.4094,0.409,0.4091,0.4078,0.4076,0.4085,0.4085,0.4085,0,0.4159,0.4154,0.4148,0.4145,0.4142,0.4136,0.4132,0.413,0.4126,0.4121,0.4117,0.4111,0.4106,0.4096,0.4093,0.4087,0.4087,0.4083,0.4086,0.4087,0.4087,0.4087,0.4087,0.4082,0.4082,0.4082,0.4082,0,0.4146,0.4145,0.414,0.4135,0.4131,0.4126,0.4122,0.4119,0.4117,0.4113,0.4107,0.4103,0.4096,0.409,0.4085,0.4082,0.4081,0.4081,0.408,0.408,0.4082,0.4081,0.4092,0.4081,0.4081,0.4081,0.4081,0.4081,0.4137,0.4132,0.4128,0.4123,0.412,0.4116,0.4112,0.411,0.4105,0.4099,0.4098,0.4092,0.4088,0.4081,0.4078,0.4074,0.4075,0.4073,0.4073,0.4072,0.4072,0.4083,0.4073,0.4073,0.4073,0.4073,0.4073,0,0.4123,0.4121,0.4117,0.4111,0.4107,0.4109,0.4104,0.4101,0.4096,0.4092,0.4088,0.4082,0.4077,0.4074,0.4069,0.4066,0.4066,0.4065,0.4065,0.4065,0.4071,0.4073,0.4066,0.4066,0.4066,0.4066,0.4066,0.4066,0.4116,0.4109,0.4108,0.41,0.4098,0.4093,0.4091,0.4088,0.4085,0.4079,0.4075,0.4073,0.407,0.4066,0.4061,0.4061,0.4059,0.4058,0.4057,0.4063,0.4064,0.4065,0.4066,0.4058,0.4058,0.4051,0.4051,0.4051]},{"header":{"parameterUnit":"m.s-1","parameterCategory":1,"la1":30.2991,"la2":30.254,"lo1":-89.0895,"lo2":-89.0444,"dx":0.0017,"dy":0.0017,"nx":28,"ny":28,"refTime":"2022-11-15T15:00:00:Z","depth":0,"parameterNumber":3,"parameterNumberName":"V-component_of_WINDS"},"data":[0,0,0,0,0,0,0,0,0,0,0,0,0,0,0,0,0,0,0,0,0,0,0,0,0,0,0,0,0,0,0,0,0,0,0,0,0,0,0,0,0,0,0,0,0,0,0,0,0,0,0,0,0,0,0,0,0,0,-6.9708,-6.9709,0,-6.9841,-6.9842,-6.9843,-6.9774,-6.9771,-6.9767,-6.9764,-6.9893,-6.99,-6.9906,0,0,0,0,0,0,0,0,0,0,0,0,0,-6.9385,-6.9391,-6.9707,-6.9709,-6.9711,-6.984,-6.9842,-6.9844,-6.9775,-6.9771,-6.9766,-6.9762,-6.9891,-6.9899,-6.9907,0,0,0,0,0,0,0,0,0,0,0,0,0,-6.9522,-6.9393,-6.9707,-6.9692,-6.9692,-6.984,-6.9842,-6.9844,-6.9776,-6.9771,-6.9765,-6.976,-6.9888,-6.9898,-6.9908,-7.0076,0,0,-6.9939,-6.9943,0,0,0,0,0,0,0,0,-6.9514,-6.9534,-6.9693,-6.9693,-6.9694,-6.9786,-6.9776,-6.9922,-6.9777,-6.9744,-6.9764,-6.9758,-6.9861,-6.9873,-6.9909,-7.0082,-7.0088,-6.994,-6.9946,-6.995,-6.9953,0,0,0,0,0,0,0,-6.9505,-6.9528,-6.976,-6.9695,-6.9696,-6.9676,-6.9689,-6.9803,-6.983,-6.9746,-6.9742,-6.9759,-6.986,-6.99,-6.9912,-7.0089,-6.9939,-6.9948,-6.9955,-6.9959,-7.0403,-7.0409,0,0,0,0,0,0,-6.9497,-6.952,-6.9756,-6.9764,-6.9589,-6.9686,-6.9701,-6.9761,-6.9829,-6.9834,-6.9763,-6.9755,-6.9885,-6.99,-6.9916,-7.0116,-6.995,-6.996,-6.9965,-7.0398,-7.0405,-7.0411,0,0,0,0,0,0,-6.9491,-6.9519,-6.975,-6.9641,-6.9669,-6.9697,-6.9765,-6.9767,-6.9806,-6.9842,-6.9845,-6.9799,-6.9882,-6.9902,-7.0037,-7.012,-6.9964,-6.9973,-7.0391,-7.04,-7.0408,-7.0518,0,0,0,0,0,0,-6.9482,-6.9517,-6.9584,-6.9643,-6.9675,-6.9872,-6.977,-6.9773,-6.9825,-6.9815,-6.9877,-6.9881,-6.9879,-7.0022,-7.0047,-7.0131,-6.9981,-7.0384,-7.0395,-7.0405,-7.0508,-7.053,-7.0549,0,0,0,0,0,-6.947,-6.9608,-6.9587,-6.9616,-6.9759,-6.9877,-6.9895,-6.9891,-6.9832,-6.9897,-6.9919,-6.9879,-7.0107,-7.0036,-7.0064,-7.0152,-7.0378,-7.0392,-7.0404,-7.0498,-7.0525,-7.0548,0,0,0,0,0,0,-6.9556,-6.9616,-6.9593,-6.9755,-6.9812,-6.9865,-6.9948,-6.992,-6.9993,-6.9981,-6.9971,-6.9985,-7.0125,-7.0152,-7.0073,-7.0317,-7.0233,-7.0252,-7.0295,-7.0321,-7.0341,-7.0332,-6.999,0,0,0,0,0,-6.9594,-6.9687,-6.9733,-6.9871,-6.9901,-6.992,-6.9971,-6.9963,-7.002,-7.0043,-7.0075,-7.013,-7.0213,-7.0268,-7.0347,-7.051,-7.0521,-7.0584,-7.0605,-7.0622,-7.0638,-7.0724,-7.0753,-7.0454,-7.0454,-7.0453,0,0,-6.9673,-6.9717,-6.9776,-6.9889,-6.9932,-7.0026,-6.994,-7.0043,-7.0112,-7.0058,-7.0188,-7.0213,-7.0273,-7.0422,-7.0489,-7.0448,-7.0723,-7.0638,-7.0651,-7.0659,-7.0741,-7.0769,-7.0794,-7.0462,-7.0461,-7.0459,0,0,-6.9865,-6.9908,-7.0028,-7.0072,-7.0139,-7.015,-7.0178,-7.0236,-7.0251,-7.0381,-7.0342,-7.0422,-7.0566,-7.061,-7.0652,-7.0857,-7.0823,-7.0883,-7.0991,-7.1075,-7.1099,-7.112,-7.1192,-7.1218,-7.0899,-7.09,-7.09,0,-6.9954,-7.0097,-7.0092,-7.0199,-7.0248,-7.0205,-7.0324,-7.0366,-7.0454,-7.0488,-7.0441,-7.062,-7.0658,-7.0816,-7.0866,-7.0901,-7.0932,-7.0877,-7.1096,-7.1117,-7.1137,-7.1205,-7.1233,-7.0906,-7.0906,-7.0905,-7.0904,0,-7.0202,-7.0301,-7.0389,-7.0477,-7.0537,-7.0649,-7.0658,-7.0718,-7.0704,-7.0719,-7.0851,-7.0894,-7.098,-7.1016,-7.1004,-7.1173,-7.1145,-7.1098,-7.1013,-7.1172,-7.1237,-7.1263,-7.0916,-7.0914,-7.0912,-7.091,0,0,-7.0454,-7.0537,-7.0569,-7.0608,-7.0677,-7.0752,-7.086,-7.0946,-7.0997,-7.1058,-7.1147,-7.1269,-7.1226,-7.1272,-7.1263,-7.1337,-7.1496,-7.128,-7.1282,-7.1319,-7.1683,-7.1718,-7.1749,-7.1473,-7.1478,-7.1482,-7.1677,0,-7.065,-7.0844,-7.0841,-7.1018,-7.1108,-7.1067,-7.1161,-7.1211,-7.1228,-7.1304,-7.132,-7.1407,-7.1343,-7.1371,-7.1442,-7.1462,-7.1569,-7.1448,-7.1554,-7.1558,-7.1541,-7.1783,-7.1821,-7.2004,-7.1703,-7.1707,-7.171,0,-7.0906,-7.0978,-7.1165,-7.1219,-7.1256,-7.1342,-7.1419,-7.1493,-7.1548,-7.1554,-7.1606,-7.1585,-7.1692,-7.1604,-7.1749,-7.1667,-7.1709,-7.1725,-7.1732,-7.1742,-7.1644,-7.1799,-7.2062,-7.209,-7.175,-7.1747,-7.1744,0,-7.107,-7.1213,-7.1343,-7.1377,-7.1444,-7.1504,-7.1534,-7.1584,-7.1635,-7.1701,-7.1734,-7.1811,-7.1853,-7.1912,-7.1911,-7.1847,-7.2058,-7.197,-7.2064,-7.2064,-7.2111,-7.2108,-7.2385,-7.2139,-7.2138,-7.2138,-7.2137,0,-7.129,-7.1406,-7.1417,-7.1498,-7.1625,-7.1619,-7.1744,-7.1768,-7.1812,-7.1894,-7.1861,-7.1938,-7.1932,-7.2008,-7.2008,-7.2127,-7.2146,-7.2153,-7.2151,-7.2156,-7.2155,-7.2184,-7.2171,-7.2145,-7.2143,-7.2142,-7.2141,0,-7.1496,-7.1508,-7.1647,-7.1699,-7.1714,-7.1806,-7.1848,-7.1922,-7.1935,-7.2038,-7.2062,-7.2081,-7.2169,-7.2173,-7.2274,-7.2274,-7.2419,-7.2403,-7.2402,-7.2399,-7.2492,-7.2483,-7.2797,-7.2837,-7.2565,-7.2568,-7.257,0,-7.1636,-7.1724,-7.1785,-7.1839,-7.1873,-7.1959,-7.2011,-7.2007,-7.2062,-7.213,-7.2196,-7.2281,-7.235,-7.2491,-7.2512,-7.2589,-7.2574,-7.2679,-7.2586,-7.2587,-7.2575,-7.257,-7.2578,-7.2697,-7.27,-7.2703,-7.2705,0,-7.1883,-7.1884,-7.1962,-7.2042,-7.2106,-7.2168,-7.2225,-7.227,-7.2272,-7.2335,-7.2426,-7.2479,-7.2582,-7.2666,-7.274,-7.2767,-7.2736,-7.2734,-7.276,-7.2766,-7.2761,-7.2764,-7.2451,-7.2727,-7.2725,-7.2723,-7.2722,-7.2721,-7.206,-7.2136,-7.219,-7.2277,-7.232,-7.2374,-7.2447,-7.2468,-7.2545,-7.263,-7.2622,-7.2722,-7.2771,-7.2868,-7.2901,-7.2977,-7.2941,-7.2978,-7.2988,-7.2997,-7.3007,-7.2749,-7.299,-7.299,-7.2989,-7.2989,-7.2988,0,-7.2304,-7.2337,-7.2417,-7.25,-7.2567,-7.2533,-7.2594,-7.2653,-7.2742,-7.2792,-7.286,-7.2963,-7.3044,-7.3071,-7.3148,-7.3204,-7.3191,-7.3224,-7.322,-7.3227,-7.3035,-7.3005,-7.3233,-7.3233,-7.3233,-7.3233,-7.3233,-7.3233,-7.244,-7.2566,-7.2574,-7.272,-7.275,-7.2851,-7.2888,-7.2937,-7.2976,-7.3094,-7.3162,-7.3179,-7.3219,-7.3299,-7.337,-7.3376,-7.3406,-7.3445,-7.3444,-7.3265,-7.324,-7.3217,-7.3189,-7.3451,-7.3452,-7.3629,-7.3631,-7.3632]}]]